Location: Georgenberg
(48.1500°N, 16.2500°E)
Time: 15:01:49
(UTC+01:00)

Envisat - Visible Passes

Search period start: 02 December 2022 00:00
Search period end: 12 December 2022 00:00
Orbit: 763 x 765 km, 98.2° (Epoch: 01 December)

Date Brightness Start Highest point End Pass type
(mag) Time Alt. Az. Time Alt. Az. Time Alt. Az.
02 Dec 4.5 04:18:31 10° NNE 04:20:50 28° NNE 04:20:50 28° NNE visible
02 Dec 4.6 05:58:54 10° NNW 06:01:00 16° NW 06:01:00 16° NW visible
03 Dec 5.2 03:41:42 10° NNE 03:43:13 19° NE 03:43:13 19° NE visible
03 Dec 4.3 05:21:00 10° N 05:23:23 23° NNW 05:23:23 23° NNW visible
03 Dec 5.9 16:41:14 10° SW 16:44:12 15° W 16:47:11 10° NW visible
04 Dec 5.9 03:05:27 10° NE 03:05:37 11° NE 03:05:37 11° NE visible
04 Dec 4.4 04:43:37 10° N 04:45:48 25° N 04:45:48 25° N visible
04 Dec 4.9 06:25:43 10° NW 06:25:58 10° NW 06:25:58 10° NW visible
05 Dec 4.9 04:06:34 10° NNE 04:08:12 21° NNE 04:08:12 21° NNE visible
05 Dec 4.6 05:46:35 10° NNW 05:48:23 17° NNW 05:48:23 17° NNW visible
06 Dec 5.6 03:29:54 10° NNE 03:30:38 14° NE 03:30:38 14° NE visible
06 Dec 4.5 05:08:53 10° N 05:10:48 21° NNW 05:10:48 21° NNW visible
07 Dec 4.8 04:31:37 10° N 04:33:13 21° N 04:33:13 21° N visible
07 Dec 4.9 06:12:38 10° NNW 06:13:24 12° NW 06:13:24 12° NW visible
08 Dec 5.3 03:54:40 10° NNE 03:55:39 16° NNE 03:55:39 16° NNE visible
08 Dec 4.7 05:34:20 10° N 05:35:50 17° NNW 05:35:50 17° NNW visible
08 Dec 6.1 16:55:50 10° WSW 16:57:29 11° W 16:59:09 10° WNW visible
09 Dec 4.8 04:56:48 10° N 04:58:16 19° N 04:58:16 19° N visible
10 Dec 5.1 04:19:38 10° NNE 04:20:43 17° NNE 04:20:43 17° NNE visible
10 Dec 4.9 06:00:06 10° NNW 06:00:54 12° NNW 06:00:54 12° NNW visible
11 Dec 5.6 03:42:48 10° NNE 03:43:10 12° NNE 03:43:10 12° NNE visible
11 Dec 4.8 05:22:09 10° N 05:23:21 16° NNW 05:23:21 16° NNW visible
11 Dec 5.9 16:42:33 10° WSW 16:45:21 15° W 16:48:10 10° NW visible
